This is the latest recevied weather packets stored in our database for station/object N4DBJ. If no packets are shown the sender has not sent any weather packets the latest 10 day(s).
| Time | Temp. | Humidity | Pressure | Rain* | Wind** | Luminosity | Snow |
|---|---|---|---|---|---|---|---|
| 1777590213 | 17.78° C | 54% | 1011.9 hPa | 0 mm | - | 51 W/m² | - |
| 1777589910 | 17.78° C | 57% | 1012.2 hPa | 0 mm | - | 192 W/m² | - |
| 1777589605 | 18.33° C | 50% | 1012.4 hPa | 0 mm | - | 89 W/m² | - |
| 1777589303 | 18.89° C | 49% | 1012.4 hPa | 0 mm | - | 134 W/m² | - |
| 1777588995 | 17.78° C | 49% | 1012.4 hPa | 0 mm | - | 106 W/m² | - |
| 1777588690 | 17.78° C | 50% | 1012.3 hPa | 0 mm | - | 77 W/m² | - |
| 1777588386 | 18.33° C | 45% | 1012.6 hPa | 0 mm | - | 83 W/m² | - |
| 1777588082 | 18.33° C | 45% | 1012.5 hPa | 0 mm | - | 275 W/m² | - |
| 1777587778 | 18.33° C | 44% | 1012.6 hPa | 0 mm | - | 105 W/m² | - |
| 1777587477 | 18.33° C | 44% | 1012.5 hPa | 0 mm | - | 179 W/m² | - |
| 1777587175 | 18.89° C | 46% | 1012.4 hPa | 0 mm | - | 163 W/m² | - |
| 1777586869 | 19.44° C | 43% | 1012.7 hPa | 0 mm | - | 308 W/m² | - |
| 1777586566 | 18.89° C | 45% | 1012.6 hPa | 0 mm | - | 285 W/m² | - |
| 1777586261 | 18.33° C | 44% | 1012.4 hPa | 0 mm | - | 356 W/m² | - |
| 1777585959 | 18.89° C | 45% | 1012.5 hPa | 0 mm | - | 142 W/m² | - |
| 1777585654 | 18.89° C | 44% | 1012.7 hPa | 0 mm | - | 342 W/m² | - |
| 1777585349 | 18.89° C | 47% | 1012.6 hPa | 0 mm | - | 181 W/m² | - |
| 1777585044 | 19.44° C | 52% | 1012.5 hPa | 0 mm | - | 286 W/m² | - |
| 1777584741 | 18.89° C | 45% | 1012.6 hPa | 0 mm | - | 416 W/m² | - |
| 1777584439 | 18.89° C | 44% | 1012.7 hPa | 0 mm | - | 382 W/m² | - |
| 1777584135 | 18.89° C | 49% | 1012.8 hPa | 0 mm | - | 390 W/m² | - |
| 1777583834 | 18.33° C | 47% | 1012.8 hPa | 0 mm | - | 286 W/m² | - |
| 1777583530 | 18.89° C | 49% | 1012.8 hPa | 0 mm | - | 361 W/m² | - |
| 1777583223 | 17.78° C | 49% | 1012.9 hPa | 0 mm | - | 468 W/m² | - |
| 1777582918 | 18.33° C | 46% | 1012.9 hPa | 0 mm | - | 475 W/m² | - |
* Rain latest hour (hover to see other rain measurements)
** Current wind speed in m/s (hover to see current wind gust speed)